Regional Weather Roundup
Issued by NWS

Home | Current Version | Previous Version | Graphics & Text | Print | Product List | Glossary On
Versions: 1 2 3 4 5 6 7 8 9 10 11 12 13 14 15 16 17 18 19 20 21 22 23 24 25 26 27 28 29 30 31 32 33 34 35 36 37 38 39 40 41 42 43 44 45 46 47 48 49 50
201
ASUS44 KMEG 300900
RWRTN
TENNESSEE HOURLY STATE WEATHER ROUNDUP
NATIONAL WEATHER SERVICE MEMPHIS TN
400 AM CDT MON MAY 30 2016

TNZ002-004-019-021-049-052-054-088>092-301000-
WEST TENNESSEE

CITY           SKY/WX    TMP DP  RH WIND       PRES   REMARKS
MEMPHIS INTL   CLOUDY    72  68  87 CALM      30.04R
NWS MEMPHIS      N/A     68 N/A N/A MISG        N/A
JACKSON        CLOUDY    68  66  93 CALM      30.03S FOG
DYERSBURG      CLOUDY    68  66  94 CALM      30.03S
UNION CITY     CLEAR     66  66 100 CALM      30.03S
PARIS          CLEAR     63  61  94 CALM      30.05R
$$

TNZ008-025-027-028-033-062-065-066-301000-
NORTH MIDDLE TENNESSEE

CITY           SKY/WX    TMP DP  RH WIND       PRES   REMARKS
NASHVILLE      PTCLDY    70  66  87 S3        30.04S
CLARKSVILLE    CLEAR     66  63  90 CALM      30.04S
COOKEVILLE     MOCLDY    64  64 100 CALM      30.05S
CROSSVILLE     CLOUDY    63  59  87 CALM      30.08F FOG
$$

TNZ061-075-076-078-094-096-097-301000-
SOUTH MIDDLE TENNESSEE

CITY           SKY/WX    TMP DP  RH WIND       PRES   REMARKS
TULLAHOMA      CLEAR     64  64 100 CALM      30.06S
SHELBYVILLE    CLEAR     66  66 100 CALM      30.05S
$$

TNZ017-018-042-046-047-301000-
NORTHEAST TENNESSEE

CITY           SKY/WX    TMP DP  RH WIND       PRES   REMARKS
TRI CITIES     PTCLDY    58  56  93 CALM      30.07S
$$

TNZ012-013-036-069-073-074-301000-
CENTRAL EAST TENNESSEE

CITY           SKY/WX    TMP DP  RH WIND       PRES   REMARKS
KNOXVILLE      FOG       65  65 100 CALM      30.04S VSB 1/16
OAK RIDGE      CLOUDY    64  63  96 CALM      30.05F FOG
GATLINBURG     PTCLDY    61  59  94 CALM      30.05S
$$

TNZ083-085-099-301000-
SOUTHEAST TENNESSEE

CITY           SKY/WX    TMP DP  RH WIND       PRES   REMARKS
CHATTANOOGA    PTCLDY    69  64  84 CALM      30.03S
$$

SKY/WX REPORTED AS FAIR MEANS FEW OR NO CLOUDS BELOW
12 THOUSAND FEET.





USA.gov is the U.S. government's official web portal to all federal, state and local government web resources and services.